Tracking 25405 objects as of 27-Jan-2022
HD Live streaming from Space Station
objects crossing your sky now

PALAPA B1

Track PALAPA B1 now!
PALAPA B1 is classified as:


NORAD ID: 14134
Int'l Code: 1983-059C
Perigee: 35,786.9 km
Apogee: 35,834.2 km
Inclination: 13.6 °
Period: 1,437.0 minutes
Semi major axis: 42181 km
RCS: 1.2604 m2 (large)
Launch date: June 18, 1983
Source: Indonesia (INDO)
Launch site: AIR FORCE EASTERN TEST RANGE (AFETR)
aabbcc
Your satellite tracking list
Your tracking list is empty




NASA's NSSDC Master Catalog

Two Line Element Set (TLE):
1 14134U 83059C   22026.65187045 -.00000003  00000-0  00000+0 0  9999
2 14134  13.5931 341.5275 0005616  65.8106 129.2370  1.00211877104778
Source of the keplerian elements: AFSPC